Location: Marcé
(47.5801°N, 0.3280°W)
Time: 04:04:30
(UTC+01:00)

Explorer 11/Cluster Stage 4 - Pass Details

Date: 02 December 2021
Orbit: 467 x 1255 km, 28.8° (Epoch: 26 January)

Event Time Altitude Azimuth Distance (km) Brightness Sun altitude
Rises 06:30:04 0° 243° (WSW) 3,992 - -19.4°
Exits shadow 06:33:06 - 229° (SW) 3,271 9.4 -18.9°
Reaches altitude 10° 06:33:51 10° 225° (SW) 3,125 9.3 -18.8°
Maximum altitude 06:38:48 18° 187° (S) 2,639 9.3 -18.0°
Drops below altitude 10° 06:43:53 10° 148° (SSE) 3,222 10.4 -17.2°
Sets 06:47:52 0° 131° (SE) 4,161 11.5 -16.5°
